AirNav   Air Wisconsin Up To $57,000 Bonus
 
 1417 users online  

95F Cleveland Municipal Airport
Cleveland, Oklahoma, USA

GOING TO CLEVELAND?


FAA INFORMATION EFFECTIVE 11 AUGUST 2022

Location

FAA Identifier: 95F
Lat/Long: 36-17-03.0000N 096-27-48.0000W
36-17.050000N 096-27.800000W
36.2841667,-96.4633333
(estimated)
Elevation: 976 ft. / 297 m (estimated)
Variation: 06E (1985)
From city: 2 miles S of CLEVELAND, OK
Time zone: UTC -5 (UTC -6 during Standard Time)
Zip code: 74020

Airport Operations

Airport use: Open to the public
Activation date: 10/1967
Control tower: no
ARTCC: KANSAS CITY CENTER
FSS: MC ALESTER FLIGHT SERVICE STATION
NOTAMs facility: MLC (NOTAM-D service available)
Attendance: UNATNDD
Wind indicator: yes
Segmented circle: no
Lights: ACTVT MIRL RY 18/36 - CTAF.
Beacon: white-green (lighted land airport)
Operates sunset to sunrise.

Airport Communications

CTAF: 122.9
WX AWOS-3 at OWP (16 nm SE): 118.325 (918-246-2635)

Nearby radio navigation aids

VOR radial/distance  VOR name  Freq  Var
SWOr076/30.1STILLWATER VOR/DME108.4007E
TULr271/33.1TULSA VORTAC114.4008E
BVOr205/39.4BARTLESVILLE VOR/DME117.9008E

Airport Services

Parking: hangars and tiedowns
Airframe service: NONE
Powerplant service: NONE
Bottled oxygen: NONE
Bulk oxygen: NONE

Runway Information

Runway 18/36

Dimensions: 4000 x 60 ft. / 1219 x 18 m
Surface: asphalt, in good condition
Weight bearing capacity: 
Single wheel: 4.0
Runway edge lights: medium intensity
RUNWAY 18  RUNWAY 36
Latitude: 36-17.376833N36-16.723167N
Longitude: 096-27.747167W096-27.852833W
Elevation: 971.0 ft.976.0 ft.
Traffic pattern: leftleft
Runway heading: 181 magnetic, 187 true001 magnetic, 007 true
Markings: basic, in good conditionbasic, in good condition
Visual slope indicator: 2-light PAPI on left (2.75 degrees glide path)2-light PAPI on left (2.75 degrees glide path)
Obstructions: 68 ft. pline, 1408 ft. from runway, 245 ft. left of centerline, 17:1 slope to clear40 ft. tree, 1000 ft. from runway, 50 ft. right of centerline, 20:1 slope to clear

Airport Ownership and Management from official FAA records

Ownership: Publicly-owned
Owner: CITY OF CLEVELAND
201 N. BROADWAY, P.O. DRAWER 190
CLEVELAND, OK 74020
Phone 918-358-3506
Manager: MIKE VAUGHAN
105 W CADDO ST
CLEVELAND, OK 74020
Phone 918-358-3506
CITY MANAGER.

Airport Operational Statistics

Aircraft based on the field: 5
Single engine airplanes: 5
    
Aircraft operations: avg 31/week *
62% local general aviation
31% transient general aviation
6% military
* for 12-month period ending 10 March 2022

Additional Remarks

GOLFERS INVOF ARPT.
FOR CD CTC TULSA APCH AT 918-831-6714/6720.

Instrument Procedures

There are no published instrument procedures at 95F.

Some nearby airports with instrument procedures:

KOWP - William R Pogue Municipal Airport (16 nm SE)
KCUH - Cushing Municipal Airport (25 nm SW)
KRVS - Tulsa Riverside Airport (27 nm SE)
KTUL - Tulsa International Airport (28 nm E)
3F7 - Jones Memorial Airport (29 nm S)
 
Loc | Ops | Rwys | IFR | FBO | Links
Com | Nav | Svcs | Stats | Notes
Area around 95F (Cleveland Municipal Airport)
 
Road maps at: MapQuest Bing Google
 
Aerial photo
No photo
 
Sectional chart

 
Airport distance calculator
Flying to Cleveland Municipal Airport? Find the distance to fly.

From to 95F

Sunrise and sunset
Times for 15-Aug-2022
 Local
(UTC-5)
 Zulu
(UTC)
Morning civil twilight06:1711:17
Sunrise06:4511:45
Sunset20:1601:16
Evening civil twilight20:4301:43

Current date and time
Zulu (UTC)  15-Aug-2022 23:11:25
Local (UTC-5)  15-Aug-2022 18:11:25
 
METAR
KCUH 
25nm SW 
152255Z AUTO 22008KT 10SM CLR 37/18 A2985 RMK AO2 T03710184
KRVS 
27nm SE 
152253Z VRB06KT 10SM CLR 38/19 A2984 RMK AO2 SLP106 T03780189
KTUL 
29nm E 
152253Z 20008G16KT 10SM FEW080 38/18 A2984 RMK AO2 SLP095 T03780183
KSWO 
31nm W 
152253Z 17013KT 10SM CLR 39/17 A2986 RMK AO2 SLP093 T03890172
TAF
KRVS 
27nm SE 
151720Z 1518/1618 19008KT P6SM FEW070
KTUL 
29nm E 
151720Z 1518/1618 18008KT P6SM FEW070
KSWO 
31nm W 
151720Z 1518/1618 19011KT P6SM SCT070 FM160000 17009KT P6SM SKC FM161300 24007KT P6SM SKC FM161400 29008G13KT P6SM FEW070
NOTAMs
Click for the latest NOTAMs
NOTAMs are issued by the DoD/FAA and will open in a separate window not controlled by AirNav.

 

 
 

Would you like to see your business listed on this page?

 If your business provides an interesting product or service to pilots, flight crews, aircraft, or users of the Cleveland Municipal Airport, you should consider listing it here.  To start the listing process, click on the button below
 
Add a business
 

Other Pages about Cleveland Municipal Airport

Mid Air Collision Avoidance Chart
 
Update a link
 
Copyright © AirNav, LLC. All rights reserved. Privacy Policy  Contact